Location: Hungerford
(51.4167°N, 1.5167°W)
Time: 20:16:12
(UTC+00:00)

X-37B - Visible Passes

Search period start: 30 November 2020 00:00
Search period end: 10 December 2020 00:00
Orbit: 384 x 390 km, 45.0° (Epoch: 26 November)

Date Brightness Start Highest point End Pass type
(mag) Time Alt. Az. Time Alt. Az. Time Alt. Az.
30 Nov 2.7 18:23:36 10° SW 18:25:25 20° S 18:25:25 20° S visible
01 Dec 2.8 17:25:34 10° SSW 17:27:44 17° SSE 17:29:28 12° SE visible
01 Dec 3.6 19:01:04 10° WSW 19:01:44 14° SW 19:01:44 14° SW visible
02 Dec 2.2 18:02:43 10° SW 18:05:22 24° S 18:05:47 24° SSE visible
03 Dec 2.6 17:04:29 10° SW 17:06:59 21° SSE 17:09:29 10° ESE visible
03 Dec 2.9 18:40:24 10° WSW 18:42:06 21° SW 18:42:06 21° SW visible
04 Dec 2.3 17:41:58 10° WSW 17:44:40 26° S 17:46:11 18° SE visible
05 Dec 2.5 16:43:37 10° SW 16:46:16 24° S 16:48:55 10° ESE visible
05 Dec 2.6 18:19:49 10° WSW 18:22:21 22° SSW 18:22:35 22° S visible
06 Dec 2.5 17:21:18 10° WSW 17:23:58 25° S 17:26:38 10° SE visible
06 Dec 3.7 18:58:17 10° SW 18:59:04 12° SW 18:59:04 12° SW visible
07 Dec 3.1 17:59:22 10° WSW 18:01:37 18° SSW 18:03:22 12° SSE visible
08 Dec 2.9 17:00:44 10° WSW 17:03:15 22° SSW 17:05:46 10° SE visible
09 Dec 3.5 17:39:11 10° SW 17:40:50 13° SSW 17:42:29 10° S visible
